Hourly Weather Bolshoy Tatosh

Today, 10 August, Monday

Time Temperature Precipitation Wind Pressure Humidity
00:00 +19°C° 0 mm 2 mps 747 mmHg 68%
01:00 +18°C° 0 mm 2 mps 746 mmHg 70%
02:00 +17°C° 0 mm 2 mps 746 mmHg 72%
03:00 +17°C° 0 mm 2 mps 746 mmHg 74%
04:00 +17°C° 0 mm 2 mps 746 mmHg 75%
05:00 +17°C° 0 mm 2 mps 746 mmHg 76%
06:00 +18°C° 0 mm 1 mps 746 mmHg 76%
07:00 +19°C° 0 mm 2 mps 746 mmHg 69%
08:00 +21°C° 0 mm 2 mps 746 mmHg 63%
09:00 +24°C° 0 mm 2 mps 746 mmHg 56%
10:00 +26°C° 0 mm 3 mps 746 mmHg 50%
11:00 +28°C° 0 mm 3 mps 746 mmHg 44%
12:00 +30°C° 0 mm 4 mps 745 mmHg 36%
13:00 +30°C° 0 mm 4 mps 745 mmHg 36%
14:00 +30°C° 0 mm 3 mps 745 mmHg 36%
15:00 +31°C° 0 mm 3 mps 745 mmHg 35%
16:00 +30°C° 0 mm 3 mps 745 mmHg 41%
17:00 +29°C° 0 mm 2 mps 744 mmHg 47%
18:00 +28°C° 0 mm 2 mps 744 mmHg 53%
19:00 +26°C° 0 mm 2 mps 744 mmHg 57%
20:00 +24°C° 0 mm 1 mps 744 mmHg 62%
21:00 +21°C° 0 mm 1 mps 744 mmHg 67%
22:00 +21°C° 0 mm 1 mps 744 mmHg 69%
23:00 +20°C° 0 mm 1 mps 744 mmHg 71%

Tomorrow, 11 August, Tuesday

Time Temperature Precipitation Wind Pressure Humidity
00:00 +18°C° 0 mm 2 mps 744 mmHg 74%
01:00 +18°C° 0 mm 2 mps 744 mmHg 75%
02:00 +17°C° 0 mm 2 mps 744 mmHg 76%
03:00 +16°C° 0 mm 2 mps 743 mmHg 77%
04:00 +16°C° 0 mm 2 mps 743 mmHg 78%
05:00 +16°C° 0 mm 2 mps 744 mmHg 79%
06:00 +16°C° 0 mm 2 mps 744 mmHg 80%
07:00 +18°C° 0 mm 2 mps 744 mmHg 74%
08:00 +20°C° 0 mm 2 mps 743 mmHg 68%
09:00 +24°C° 0 mm 3 mps 743 mmHg 62%
10:00 +25°C° 0 mm 3 mps 743 mmHg 57%
11:00 +27°C° 0 mm 3 mps 743 mmHg 52%
12:00 +29°C° 0 mm 3 mps 743 mmHg 47%
13:00 +29°C° 0 mm 3 mps 743 mmHg 45%
14:00 +30°C° 0 mm 3 mps 743 mmHg 43%
15:00 +31°C° 0 mm 3 mps 743 mmHg 41%
16:00 +30°C° 0 mm 2 mps 743 mmHg 46%
17:00 +30°C° 0 mm 2 mps 743 mmHg 51%
18:00 +29°C° 0 mm 2 mps 743 mmHg 56%
19:00 +27°C° 0 mm 2 mps 742 mmHg 62%
20:00 +25°C° 0 mm 2 mps 742 mmHg 67%
21:00 +23°C° 0 mm 2 mps 742 mmHg 73%
22:00 +21°C° 0 mm 2 mps 742 mmHg 75%
23:00 +20°C° 0 mm 2 mps 742 mmHg 76%

Day after tomorrow, 12 August, Wednesday

Time Temperature Precipitation Wind Pressure Humidity
00:00 +19°C° 0 mm 2 mps 742 mmHg 78%
01:00 +19°C° 0 mm 2 mps 742 mmHg 79%
02:00 +18°C° 0 mm 2 mps 741 mmHg 80%
03:00 +17°C° 0 mm 2 mps 741 mmHg 81%
04:00 +17°C° 0 mm 2 mps 741 mmHg 79%
05:00 +17°C° 0 mm 2 mps 741 mmHg 78%
06:00 +18°C° 0 mm 2 mps 741 mmHg 76%
07:00 +19°C° 0.5 mm 2 mps 741 mmHg 77%
08:00 +20°C° 0.5 mm 2 mps 740 mmHg 77%
09:00 +21°C° 0.5 mm 2 mps 740 mmHg 77%
10:00 +24°C° 0.2 mm 3 mps 740 mmHg 69%
11:00 +26°C° 0.2 mm 3 mps 740 mmHg 61%
12:00 +28°C° 0.2 mm 3 mps 740 mmHg 54%
13:00 +29°C° 0.2 mm 3 mps 740 mmHg 53%
14:00 +30°C° 0.2 mm 3 mps 739 mmHg 53%
15:00 +30°C° 0.2 mm 2 mps 739 mmHg 53%
16:00 +28°C° 1.4 mm 3 mps 739 mmHg 62%
17:00 +26°C° 1.4 mm 3 mps 739 mmHg 72%
18:00 +23°C° 1.4 mm 4 mps 739 mmHg 81%
19:00 +21°C° 2.3 mm 3 mps 739 mmHg 86%
20:00 +20°C° 2.3 mm 3 mps 739 mmHg 90%
21:00 +18°C° 2.3 mm 2 mps 739 mmHg 95%
22:00 +18°C° 0.5 mm 2 mps 739 mmHg 96%
23:00 +18°C° 0.5 mm 2 mps 739 mmHg 97%

13 August, Thursday

Time Temperature Precipitation Wind Pressure Humidity
00:00 +17°C° 0.5 mm 2 mps 739 mmHg 98%
01:00 +17°C° 0.1 mm 2 mps 739 mmHg 97%
02:00 +17°C° 0.1 mm 2 mps 739 mmHg 97%
03:00 +16°C° 0.1 mm 2 mps 739 mmHg 97%
04:00 +16°C° 0 mm 2 mps 739 mmHg 96%
05:00 +16°C° 0 mm 2 mps 740 mmHg 96%
06:00 +16°C° 0 mm 2 mps 740 mmHg 96%
07:00 +17°C° 0 mm 2 mps 740 mmHg 89%
08:00 +19°C° 0 mm 2 mps 740 mmHg 82%
09:00 +21°C° 0 mm 2 mps 740 mmHg 75%
10:00 +24°C° 0 mm 2 mps 740 mmHg 66%
11:00 +26°C° 0 mm 3 mps 740 mmHg 57%
12:00 +28°C° 0 mm 3 mps 740 mmHg 48%
13:00 +27°C° 0 mm 3 mps 740 mmHg 50%
14:00 +27°C° 0 mm 3 mps 740 mmHg 51%
15:00 +27°C° 0 mm 2 mps 740 mmHg 53%
16:00 +27°C° 0 mm 2 mps 740 mmHg 56%
17:00 +27°C° 0 mm 1 mps 740 mmHg 59%
18:00 +27°C° 0 mm 1 mps 740 mmHg 62%
19:00 +24°C° 1.1 mm 1 mps 740 mmHg 72%
20:00 +22°C° 1.1 mm 1 mps 741 mmHg 82%
21:00 +19°C° 1.1 mm 1 mps 741 mmHg 93%
22:00 +19°C° 0.1 mm 1 mps 741 mmHg 93%
23:00 +18°C° 0.1 mm 1 mps 741 mmHg 94%

14 August, Friday

Time Temperature Precipitation Wind Pressure Humidity
00:00 +17°C° 0.1 mm 2 mps 741 mmHg 95%
01:00 +16°C° 0 mm 1 mps 741 mmHg 95%
02:00 +16°C° 0 mm 1 mps 741 mmHg 96%
03:00 +16°C° 0 mm 1 mps 741 mmHg 97%
04:00 +16°C° 0 mm 1 mps 742 mmHg 97%
05:00 +16°C° 0 mm 1 mps 742 mmHg 97%
06:00 +16°C° 0 mm 2 mps 742 mmHg 97%
07:00 +17°C° 0 mm 2 mps 742 mmHg 91%
08:00 +19°C° 0 mm 2 mps 743 mmHg 86%
09:00 +21°C° 0 mm 2 mps 743 mmHg 80%
10:00 +23°C° 0.1 mm 2 mps 743 mmHg 71%
11:00 +25°C° 0.1 mm 3 mps 743 mmHg 62%
12:00 +27°C° 0.1 mm 3 mps 743 mmHg 53%
13:00 +27°C° 0.1 mm 3 mps 742 mmHg 52%
14:00 +28°C° 0.1 mm 3 mps 742 mmHg 51%
15:00 +28°C° 0.1 mm 3 mps 742 mmHg 49%
16:00 +27°C° 0.3 mm 2 mps 742 mmHg 57%
17:00 +26°C° 0.3 mm 2 mps 743 mmHg 65%
18:00 +25°C° 0.3 mm 2 mps 743 mmHg 73%
19:00 +23°C° 0.2 mm 1 mps 743 mmHg 79%
20:00 +21°C° 0.2 mm 1 mps 743 mmHg 84%
21:00 +19°C° 0.2 mm 1 mps 743 mmHg 90%
22:00 +19°C° 0 mm 1 mps 743 mmHg 91%
23:00 +18°C° 0 mm 1 mps 743 mmHg 92%

15 August, Saturday

Time Temperature Precipitation Wind Pressure Humidity
00:00 +18°C° 0 mm 1 mps 743 mmHg 93%
01:00 +18°C° 0 mm 1 mps 743 mmHg 94%
02:00 +16°C° 0 mm 1 mps 744 mmHg 94%
03:00 +16°C° 0 mm 1 mps 744 mmHg 95%
04:00 +16°C° 0 mm 1 mps 744 mmHg 95%
05:00 +16°C° 0 mm 1 mps 744 mmHg 95%
06:00 +16°C° 0 mm 1 mps 744 mmHg 95%
07:00 +19°C° 0 mm 1 mps 744 mmHg 89%
08:00 +19°C° 0 mm 0 mps 745 mmHg 83%
09:00 +21°C° 0 mm 0 mps 745 mmHg 76%
10:00 +25°C° 0.1 mm 1 mps 745 mmHg 70%
11:00 +26°C° 0.1 mm 1 mps 745 mmHg 63%
12:00 +27°C° 0.1 mm 1 mps 745 mmHg 57%
13:00 +27°C° 0.9 mm 1 mps 745 mmHg 63%
14:00 +26°C° 0.9 mm 2 mps 745 mmHg 68%
15:00 +26°C° 0.9 mm 2 mps 745 mmHg 74%
16:00 +25°C° 1.2 mm 2 mps 745 mmHg 79%
17:00 +24°C° 1.2 mm 2 mps 745 mmHg 84%
18:00 +23°C° 1.2 mm 1 mps 746 mmHg 90%
19:00 +22°C° 0.1 mm 1 mps 746 mmHg 91%
20:00 +21°C° 0.1 mm 1 mps 746 mmHg 93%
21:00 +20°C° 0.1 mm 1 mps 746 mmHg 95%
22:00 +19°C° 0 mm 1 mps 746 mmHg 96%
23:00 +18°C° 0 mm 1 mps 746 mmHg 96%
Show more